Location: Wilhelmshaven
(53.5279°N, 8.1063°E)
Time: 23:09:11
(UTC+02:00)

ISS - Pass Details

Date: 11 July 2022
Orbit: 412 x 420 km, 51.6° (Epoch: 19 August)

Event Time Altitude Azimuth Distance (km) Brightness Sun altitude
Exits shadow 01:40:20 10° 244° (WSW) 1,494 -1.2 -14.3°
Reaches altitude 10° 01:40:20 10° 244° (WSW) 1,492 -1.2 -14.3°
Maximum altitude 01:43:36 52° 167° (SSE) 528 -3.7 -14.3°
Drops below altitude 10° 01:46:54 10° 90° (E) 1,501 -0.9 -14.3°
Sets 01:49:01 0° 86° (E) 2,368 0.2 -14.3°
